• In Uzbekistan
  • List of Countries
  • For 7 days
  • Water Temperature
  • Satellite Maps
  • Weather Map
  • Weather Widgets
  • user-avatar
    Login

    Hourly Weather Córdoba

    Today, 27 June, Tuesday

    Time Temperature Precipitation Wind Pressure Humidity
    00:00 +17°C° 1 mm 3 mps 720 mmHg 92%
    01:00 +17°C° 1 mm 3 mps 720 mmHg 94%
    02:00 +17°C° 1 mm 3 mps 721 mmHg 96%
    03:00 +17°C° 0.5 mm 3 mps 721 mmHg 95%
    04:00 +16°C° 0.5 mm 3 mps 721 mmHg 94%
    05:00 +15°C° 0.5 mm 4 mps 721 mmHg 94%
    06:00 +15°C° 0.1 mm 4 mps 722 mmHg 92%
    07:00 +14°C° 0.1 mm 4 mps 722 mmHg 91%
    08:00 +14°C° 0.1 mm 4 mps 723 mmHg 89%
    09:00 +16°C° 0 mm 3 mps 724 mmHg 82%
    10:00 +17°C° 0 mm 3 mps 724 mmHg 75%
    11:00 +18°C° 0 mm 3 mps 725 mmHg 69%
    12:00 +19°C° 0 mm 3 mps 725 mmHg 65%
    13:00 +19°C° 0 mm 4 mps 725 mmHg 62%
    14:00 +20°C° 0 mm 4 mps 725 mmHg 58%
    15:00 +19°C° 0 mm 4 mps 725 mmHg 61%
    16:00 +17°C° 0 mm 5 mps 725 mmHg 64%
    17:00 +15°C° 0 mm 5 mps 725 mmHg 66%
    18:00 +14°C° 0 mm 5 mps 726 mmHg 69%
    19:00 +13°C° 0 mm 5 mps 726 mmHg 71%
    20:00 +12°C° 0 mm 5 mps 727 mmHg 74%
    21:00 +11°C° 0 mm 4 mps 727 mmHg 76%
    22:00 +11°C° 0 mm 4 mps 728 mmHg 77%
    23:00 +10°C° 0 mm 3 mps 728 mmHg 79%

    Tomorrow, 28 June, Wednesday

    Time Temperature Precipitation Wind Pressure Humidity
    00:00 +10°C° 0 mm 3 mps 728 mmHg 80%
    01:00 +9°C° 0 mm 3 mps 728 mmHg 81%
    02:00 +9°C° 0 mm 2 mps 727 mmHg 81%
    03:00 +8°C° 0 mm 2 mps 727 mmHg 82%
    04:00 +8°C° 0 mm 2 mps 727 mmHg 83%
    05:00 +8°C° 0 mm 2 mps 727 mmHg 84%
    06:00 +8°C° 0 mm 2 mps 727 mmHg 84%
    07:00 +7°C° 0 mm 2 mps 727 mmHg 84%
    08:00 +7°C° 0 mm 2 mps 727 mmHg 84%
    09:00 +9°C° 0 mm 2 mps 728 mmHg 77%
    10:00 +10°C° 0 mm 2 mps 728 mmHg 69%
    11:00 +13°C° 0 mm 2 mps 728 mmHg 61%
    12:00 +14°C° 0 mm 2 mps 727 mmHg 58%
    13:00 +15°C° 0 mm 2 mps 727 mmHg 54%
    14:00 +16°C° 0 mm 2 mps 726 mmHg 51%
    15:00 +15°C° 0 mm 2 mps 726 mmHg 54%
    16:00 +15°C° 0 mm 2 mps 726 mmHg 57%
    17:00 +14°C° 0 mm 2 mps 725 mmHg 60%
    18:00 +13°C° 0 mm 1 mps 726 mmHg 65%
    19:00 +12°C° 0 mm 1 mps 726 mmHg 70%
    20:00 +11°C° 0 mm 1 mps 726 mmHg 75%
    21:00 +10°C° 0 mm 1 mps 726 mmHg 77%
    22:00 +9°C° 0 mm 0 mps 727 mmHg 79%
    23:00 +8°C° 0 mm 0 mps 727 mmHg 81%

    Day after tomorrow, 29 June, Thursday

    Time Temperature Precipitation Wind Pressure Humidity
    00:00 +8°C° 0 mm 0 mps 727 mmHg 82%
    01:00 +8°C° 0 mm 0 mps 726 mmHg 83%
    02:00 +9°C° 0 mm 1 mps 726 mmHg 84%
    03:00 +8°C° 0 mm 1 mps 726 mmHg 84%
    04:00 +8°C° 0 mm 1 mps 726 mmHg 84%
    05:00 +8°C° 0 mm 1 mps 725 mmHg 84%
    06:00 +8°C° 0 mm 1 mps 726 mmHg 82%
    07:00 +9°C° 0 mm 1 mps 726 mmHg 80%
    08:00 +9°C° 0 mm 1 mps 726 mmHg 77%
    09:00 +12°C° 0 mm 1 mps 727 mmHg 67%
    10:00 +14°C° 0 mm 1 mps 727 mmHg 57%
    11:00 +16°C° 0 mm 1 mps 727 mmHg 47%
    12:00 +17°C° 0 mm 2 mps 727 mmHg 44%
    13:00 +18°C° 0 mm 2 mps 726 mmHg 41%
    14:00 +19°C° 0 mm 2 mps 726 mmHg 38%
    15:00 +18°C° 0 mm 2 mps 726 mmHg 43%
    16:00 +17°C° 0 mm 2 mps 725 mmHg 48%
    17:00 +16°C° 0 mm 2 mps 725 mmHg 54%
    18:00 +15°C° 0 mm 2 mps 726 mmHg 58%
    19:00 +13°C° 0 mm 2 mps 726 mmHg 63%
    20:00 +12°C° 0 mm 2 mps 727 mmHg 67%
    21:00 +12°C° 0 mm 2 mps 727 mmHg 68%
    22:00 +12°C° 0 mm 2 mps 727 mmHg 69%
    23:00 +10°C° 0 mm 2 mps 727 mmHg 69%

    30 June, Friday

    Time Temperature Precipitation Wind Pressure Humidity
    00:00 +10°C° 0 mm 2 mps 727 mmHg 71%
    01:00 +11°C° 0 mm 1 mps 727 mmHg 72%
    02:00 +10°C° 0 mm 1 mps 727 mmHg 74%
    03:00 +10°C° 0 mm 1 mps 727 mmHg 74%
    04:00 +10°C° 0 mm 1 mps 727 mmHg 75%
    05:00 +9°C° 0 mm 1 mps 727 mmHg 75%
    06:00 +9°C° 0 mm 1 mps 728 mmHg 73%
    07:00 +10°C° 0 mm 1 mps 729 mmHg 70%
    08:00 +9°C° 0 mm 2 mps 729 mmHg 67%
    09:00 +12°C° 0 mm 2 mps 730 mmHg 60%
    10:00 +13°C° 0 mm 3 mps 730 mmHg 52%
    11:00 +16°C° 0 mm 3 mps 731 mmHg 45%
    12:00 +17°C° 0 mm 3 mps 731 mmHg 43%
    13:00 +17°C° 0 mm 3 mps 731 mmHg 42%
    14:00 +18°C° 0 mm 3 mps 730 mmHg 40%
    15:00 +17°C° 0 mm 3 mps 730 mmHg 45%
    16:00 +16°C° 0 mm 2 mps 730 mmHg 49%
    17:00 +15°C° 0 mm 2 mps 730 mmHg 53%
    18:00 +14°C° 0 mm 2 mps 731 mmHg 58%
    19:00 +13°C° 0 mm 2 mps 731 mmHg 63%
    20:00 +12°C° 0 mm 2 mps 731 mmHg 68%
    21:00 +10°C° 0 mm 2 mps 732 mmHg 71%
    22:00 +10°C° 0 mm 2 mps 732 mmHg 74%
    23:00 +9°C° 0 mm 2 mps 732 mmHg 77%

    1 July, Saturday

    Time Temperature Precipitation Wind Pressure Humidity
    00:00 +9°C° 0 mm 2 mps 732 mmHg 79%
    01:00 +9°C° 0 mm 1 mps 732 mmHg 82%
    02:00 +9°C° 0 mm 1 mps 732 mmHg 84%
    03:00 +8°C° 0 mm 1 mps 732 mmHg 86%
    04:00 +8°C° 0 mm 1 mps 732 mmHg 88%
    05:00 +7°C° 0 mm 1 mps 732 mmHg 89%
    06:00 +8°C° 0 mm 1 mps 732 mmHg 89%
    07:00 +8°C° 0 mm 1 mps 732 mmHg 89%
    08:00 +8°C° 0 mm 1 mps 733 mmHg 89%
    09:00 +9°C° 0 mm 2 mps 733 mmHg 79%
    10:00 +12°C° 0 mm 2 mps 733 mmHg 69%
    11:00 +13°C° 0 mm 3 mps 734 mmHg 59%
    12:00 +13°C° 0 mm 3 mps 733 mmHg 56%
    13:00 +14°C° 0 mm 4 mps 732 mmHg 53%
    14:00 +15°C° 0 mm 4 mps 732 mmHg 49%
    15:00 +14°C° 0 mm 4 mps 731 mmHg 53%
    16:00 +13°C° 0 mm 3 mps 731 mmHg 57%
    17:00 +13°C° 0 mm 3 mps 731 mmHg 61%
    18:00 +11°C° 0 mm 3 mps 731 mmHg 66%
    19:00 +10°C° 0 mm 2 mps 731 mmHg 72%
    20:00 +9°C° 0 mm 2 mps 732 mmHg 78%
    21:00 +9°C° 0 mm 2 mps 732 mmHg 78%
    22:00 +9°C° 0 mm 2 mps 732 mmHg 78%
    23:00 +8°C° 0 mm 3 mps 732 mmHg 78%

    2 July, Sunday

    Time Temperature Precipitation Wind Pressure Humidity
    00:00 +8°C° 0 mm 3 mps 732 mmHg 79%
    01:00 +7°C° 0 mm 3 mps 732 mmHg 80%
    02:00 +7°C° 0 mm 3 mps 732 mmHg 81%
    03:00 +7°C° 0 mm 3 mps 732 mmHg 82%
    04:00 +7°C° 0 mm 3 mps 732 mmHg 83%
    05:00 +5°C° 0 mm 3 mps 732 mmHg 84%
    06:00 +5°C° 0 mm 3 mps 732 mmHg 84%
    07:00 +7°C° 0 mm 3 mps 732 mmHg 84%
    08:00 +6°C° 0 mm 4 mps 732 mmHg 84%
    09:00 +8°C° 0 mm 4 mps 733 mmHg 73%
    10:00 +10°C° 0 mm 5 mps 733 mmHg 62%
    11:00 +14°C° 0 mm 6 mps 733 mmHg 51%
    12:00 +15°C° 0 mm 7 mps 733 mmHg 47%
    13:00 +16°C° 0 mm 7 mps 732 mmHg 43%
    14:00 +17°C° 0 mm 7 mps 731 mmHg 39%
    15:00 +16°C° 0 mm 6 mps 731 mmHg 41%
    16:00 +15°C° 0 mm 6 mps 730 mmHg 44%
    17:00 +14°C° 0 mm 5 mps 730 mmHg 47%
    18:00 +13°C° 0 mm 5 mps 730 mmHg 50%
    19:00 +12°C° 0 mm 4 mps 731 mmHg 53%
    20:00 +10°C° 0 mm 4 mps 731 mmHg 56%
    21:00 +10°C° 0 mm 4 mps 731 mmHg 56%
    22:00 +10°C° 0 mm 4 mps 731 mmHg 57%
    23:00 +9°C° 0 mm 5 mps 731 mmHg 58%
    Show more